Year,Month,Day,Hour,Minute,Value (Times are PST for temperature in C)
2012,07,04,00,00,11.60
2012,07,04,00,01,11.60
2012,07,04,00,02,11.60
2012,07,04,00,03,11.60
2012,07,04,00,04,11.60
2012,07,04,00,05,11.60
2012,07,04,00,06,11.60
2012,07,04,00,07,11.60
2012,07,04,00,08,11.60
2012,07,04,00,09,11.60
2012,07,04,00,10,11.60
2012,07,04,00,11,11.60
2012,07,04,00,12,11.60
2012,07,04,00,13,11.60
2012,07,04,00,14,11.60
2012,07,04,00,15,11.60
2012,07,04,00,16,11.60
2012,07,04,00,17,11.60
2012,07,04,00,18,11.60
2012,07,04,00,19,11.60
2012,07,04,00,20,11.70
2012,07,04,00,21,11.70
2012,07,04,00,22,11.70
2012,07,04,00,23,11.70
2012,07,04,00,24,11.70
2012,07,04,00,25,11.70
2012,07,04,00,26,11.70
2012,07,04,00,27,11.70
2012,07,04,00,28,11.70
2012,07,04,00,29,11.70
2012,07,04,00,30,11.70
2012,07,04,00,31,11.70
2012,07,04,00,32,11.70
2012,07,04,00,33,11.70
2012,07,04,00,34,11.70
2012,07,04,00,35,11.70
2012,07,04,00,36,11.60
2012,07,04,00,37,11.60
2012,07,04,00,38,11.60
2012,07,04,00,39,11.60
2012,07,04,00,40,11.60
2012,07,04,00,41,11.60
2012,07,04,00,42,11.60
2012,07,04,00,43,11.60
2012,07,04,00,44,11.60
2012,07,04,00,45,11.60
2012,07,04,00,46,11.60
2012,07,04,00,47,11.50
2012,07,04,00,48,11.50
2012,07,04,00,49,11.50
2012,07,04,00,50,11.50
2012,07,04,00,51,11.50
2012,07,04,00,52,11.50
2012,07,04,00,53,11.40
2012,07,04,00,54,11.40
2012,07,04,00,55,11.40
2012,07,04,00,56,11.40
2012,07,04,00,57,11.40
2012,07,04,00,58,11.40
2012,07,04,00,59,11.40
2012,07,04,01,00,11.30
2012,07,04,01,01,11.30
2012,07,04,01,02,11.30
2012,07,04,01,03,11.30
2012,07,04,01,04,11.30
2012,07,04,01,05,11.30
2012,07,04,01,06,11.30
2012,07,04,01,07,11.30
2012,07,04,01,08,11.30
2012,07,04,01,09,11.30
2012,07,04,01,10,11.20
2012,07,04,01,11,11.20
2012,07,04,01,12,11.20
2012,07,04,01,13,11.20
2012,07,04,01,14,11.20
2012,07,04,01,15,11.20
2012,07,04,01,16,11.20
2012,07,04,01,17,11.20
2012,07,04,01,18,11.10
2012,07,04,01,19,11.10
2012,07,04,01,20,11.10
2012,07,04,01,21,11.10
2012,07,04,01,22,11.10
2012,07,04,01,23,11.00
2012,07,04,01,24,11.00
2012,07,04,01,25,11.00
2012,07,04,01,26,10.90
2012,07,04,01,27,10.90
2012,07,04,01,28,10.90
2012,07,04,01,29,10.80
2012,07,04,01,30,10.80
2012,07,04,01,31,10.80
2012,07,04,01,32,10.80
2012,07,04,01,33,10.80
2012,07,04,01,34,10.80
2012,07,04,01,35,10.70
2012,07,04,01,36,10.70
2012,07,04,01,37,10.70
2012,07,04,01,38,10.60
2012,07,04,01,39,10.60
2012,07,04,01,40,10.60
2012,07,04,01,41,10.60
2012,07,04,01,42,10.60
2012,07,04,01,43,10.60
2012,07,04,01,44,10.50
2012,07,04,01,45,10.50
2012,07,04,01,46,10.50
2012,07,04,01,47,10.50
2012,07,04,01,48,10.50
2012,07,04,01,49,10.50
2012,07,04,01,50,10.50
2012,07,04,01,51,10.40
2012,07,04,01,52,10.40
2012,07,04,01,53,10.40
2012,07,04,01,54,10.40
2012,07,04,01,55,10.40
2012,07,04,01,56,10.30
2012,07,04,01,57,10.30
2012,07,04,01,58,10.30
2012,07,04,01,59,10.30
2012,07,04,02,00,10.30
2012,07,04,02,01,10.30
2012,07,04,02,02,10.30
2012,07,04,02,03,10.30
2012,07,04,02,04,10.20
2012,07,04,02,05,10.20
2012,07,04,02,06,10.20
2012,07,04,02,07,10.20
2012,07,04,02,08,10.20
2012,07,04,02,09,10.10
2012,07,04,02,10,10.10
2012,07,04,02,11,10.10
2012,07,04,02,12,10.10
2012,07,04,02,13,10.10
2012,07,04,02,14,10.00
2012,07,04,02,15,10.00
2012,07,04,02,16,10.00
2012,07,04,02,17,9.90
2012,07,04,02,18,9.90
2012,07,04,02,19,9.90
2012,07,04,02,20,9.90
2012,07,04,02,21,9.90
2012,07,04,02,22,9.90
2012,07,04,02,23,9.80
2012,07,04,02,24,9.80
2012,07,04,02,25,9.80
2012,07,04,02,26,9.80
2012,07,04,02,27,9.80
2012,07,04,02,28,9.80
2012,07,04,02,29,9.80
2012,07,04,02,30,9.80
2012,07,04,02,31,9.80
2012,07,04,02,32,9.70
2012,07,04,02,33,9.70
2012,07,04,02,34,9.70
2012,07,04,02,35,9.70
2012,07,04,02,36,9.70
2012,07,04,02,37,9.70
2012,07,04,02,38,9.70
2012,07,04,02,39,9.70
2012,07,04,02,40,9.70
2012,07,04,02,41,9.70
2012,07,04,02,42,9.70
2012,07,04,02,43,9.70
2012,07,04,02,44,9.70
2012,07,04,02,45,9.80
2012,07,04,02,46,9.80
2012,07,04,02,47,9.80
2012,07,04,02,48,9.80
2012,07,04,02,49,9.80
2012,07,04,02,50,9.80
2012,07,04,02,51,9.80
2012,07,04,02,52,9.80
2012,07,04,02,53,9.80
2012,07,04,02,54,9.80
2012,07,04,02,55,9.80
2012,07,04,02,56,9.80
2012,07,04,02,57,9.80
2012,07,04,02,58,9.80
2012,07,04,02,59,9.80
2012,07,04,03,00,9.80
2012,07,04,03,01,9.80
2012,07,04,03,02,9.80
2012,07,04,03,03,9.80
2012,07,04,03,06,9.80
2012,07,04,03,07,9.80
2012,07,04,03,08,9.90
2012,07,04,03,09,9.80
2012,07,04,03,10,9.80
2012,07,04,03,11,9.90
2012,07,04,03,12,9.80
2012,07,04,03,13,9.80
2012,07,04,03,14,9.90
2012,07,04,03,15,9.90
2012,07,04,03,16,9.90
2012,07,04,03,17,9.90
2012,07,04,03,18,9.90
2012,07,04,03,19,9.90
2012,07,04,03,20,9.90
2012,07,04,03,21,9.90
2012,07,04,03,22,9.90
2012,07,04,03,23,9.90
2012,07,04,03,24,9.90
2012,07,04,03,25,9.90
2012,07,04,03,26,10.00
2012,07,04,03,27,10.00
2012,07,04,03,28,10.00
2012,07,04,03,29,10.00
2012,07,04,03,30,10.00
2012,07,04,03,31,10.10
2012,07,04,03,32,10.10
2012,07,04,03,33,10.10
2012,07,04,03,34,10.10
2012,07,04,03,35,10.10
2012,07,04,03,36,10.10
2012,07,04,03,37,10.10
2012,07,04,03,38,10.10
2012,07,04,03,39,10.10
2012,07,04,03,40,10.10
2012,07,04,03,41,10.10
2012,07,04,03,42,10.10
2012,07,04,03,43,10.10
2012,07,04,03,44,10.10
2012,07,04,03,45,10.10
2012,07,04,03,46,10.10
2012,07,04,03,47,10.10
2012,07,04,03,48,10.10
2012,07,04,03,49,10.10
2012,07,04,03,50,10.10
2012,07,04,03,51,10.10
2012,07,04,03,52,10.10
2012,07,04,03,53,10.10
2012,07,04,03,54,10.10
2012,07,04,03,55,10.00
2012,07,04,03,56,10.00
2012,07,04,03,57,10.00
2012,07,04,03,58,10.00
2012,07,04,03,59,10.00
2012,07,04,04,00,10.00
2012,07,04,04,01,10.00
2012,07,04,04,02,10.00
2012,07,04,04,03,10.00
2012,07,04,04,04,10.00
2012,07,04,04,05,10.00
2012,07,04,04,06,9.90
2012,07,04,04,07,9.90
2012,07,04,04,08,9.90
2012,07,04,04,09,9.90
2012,07,04,04,10,9.90
2012,07,04,04,11,9.90
2012,07,04,04,12,9.90
2012,07,04,04,13,9.90
2012,07,04,04,14,9.90
2012,07,04,04,15,9.90
2012,07,04,04,16,10.00
2012,07,04,04,17,9.90
2012,07,04,04,18,10.00
2012,07,04,04,19,10.00
2012,07,04,04,20,10.00
2012,07,04,04,21,10.00
2012,07,04,04,22,10.00
2012,07,04,04,23,10.00
2012,07,04,04,24,10.00
2012,07,04,04,25,10.00
2012,07,04,04,26,10.00
2012,07,04,04,27,10.10
2012,07,04,04,28,10.10
2012,07,04,04,29,10.10
2012,07,04,04,30,10.10
2012,07,04,04,31,10.10
2012,07,04,04,32,10.10
2012,07,04,04,33,10.10
2012,07,04,04,34,10.10
2012,07,04,04,35,10.10
2012,07,04,04,36,10.10
2012,07,04,04,37,10.10
2012,07,04,04,38,10.10
2012,07,04,04,39,10.10
2012,07,04,04,40,10.10
2012,07,04,04,41,10.10
2012,07,04,04,42,10.10
2012,07,04,04,43,10.10
2012,07,04,04,44,10.10
2012,07,04,04,45,10.10
2012,07,04,04,46,10.10
2012,07,04,04,47,10.10
2012,07,04,04,48,10.10
2012,07,04,04,49,10.10
2012,07,04,04,50,10.10
2012,07,04,04,51,10.10
2012,07,04,04,52,10.10
2012,07,04,04,53,10.10
2012,07,04,04,54,10.10
2012,07,04,04,55,10.10
2012,07,04,04,56,10.10
2012,07,04,04,57,10.10
2012,07,04,04,58,10.10
2012,07,04,04,59,10.10
2012,07,04,05,00,10.10
2012,07,04,05,01,10.10
2012,07,04,05,02,10.10
2012,07,04,05,03,10.10
2012,07,04,05,04,10.10
2012,07,04,05,05,10.00
2012,07,04,05,06,10.00
2012,07,04,05,07,10.00
2012,07,04,05,08,10.00
2012,07,04,05,09,10.00
2012,07,04,05,10,10.00
2012,07,04,05,11,10.00
2012,07,04,05,12,10.00
2012,07,04,05,13,10.00
2012,07,04,05,14,9.90
2012,07,04,05,15,9.90
2012,07,04,05,16,9.90
2012,07,04,05,17,9.90
2012,07,04,05,18,9.90
2012,07,04,05,19,9.90
2012,07,04,05,20,9.90
2012,07,04,05,21,9.90
2012,07,04,05,22,9.90
2012,07,04,05,23,9.90
2012,07,04,05,24,9.90
2012,07,04,05,25,9.90
2012,07,04,05,26,9.90
2012,07,04,05,27,9.90
2012,07,04,05,28,9.90
2012,07,04,05,29,9.80
2012,07,04,05,30,9.80
2012,07,04,05,31,9.80
2012,07,04,05,32,9.80
2012,07,04,05,33,9.80
2012,07,04,05,34,9.80
2012,07,04,05,35,9.80
2012,07,04,05,36,9.80
2012,07,04,05,37,9.80
2012,07,04,05,38,9.80
2012,07,04,05,39,9.80
2012,07,04,05,40,9.80
2012,07,04,05,41,9.80
2012,07,04,05,42,9.80
2012,07,04,05,43,9.80
2012,07,04,05,44,9.80
2012,07,04,05,45,9.80
2012,07,04,05,46,9.80
2012,07,04,05,47,9.80
2012,07,04,05,48,9.80
2012,07,04,05,49,9.80
2012,07,04,05,50,9.80
2012,07,04,05,51,9.80
2012,07,04,05,52,9.80
2012,07,04,05,53,9.80
2012,07,04,05,54,9.80
2012,07,04,05,55,9.80
2012,07,04,05,56,9.80
2012,07,04,05,57,9.80
2012,07,04,05,58,9.80
2012,07,04,05,59,9.80
2012,07,04,06,00,9.80
2012,07,04,06,01,9.80
2012,07,04,06,02,9.80
2012,07,04,06,03,9.90
2012,07,04,06,04,9.90
2012,07,04,06,05,9.90
2012,07,04,06,06,9.90
2012,07,04,06,07,9.90
2012,07,04,06,08,9.90
2012,07,04,06,09,9.90
2012,07,04,06,10,9.90
2012,07,04,06,11,9.90
2012,07,04,06,12,10.00
2012,07,04,06,13,10.00
2012,07,04,06,14,10.00
2012,07,04,06,15,10.00
2012,07,04,06,16,10.00
2012,07,04,06,17,10.00
2012,07,04,06,18,10.00
2012,07,04,06,19,10.00
2012,07,04,06,20,10.00
2012,07,04,06,21,10.10
2012,07,04,06,22,10.10
2012,07,04,06,23,10.10
2012,07,04,06,24,10.10
2012,07,04,06,25,10.10
2012,07,04,06,26,10.10
2012,07,04,06,27,10.10
2012,07,04,06,28,10.10
2012,07,04,06,29,10.10
2012,07,04,06,30,10.10
2012,07,04,06,31,10.20
2012,07,04,06,32,10.20
2012,07,04,06,33,10.20
2012,07,04,06,34,10.20
2012,07,04,06,35,10.20
2012,07,04,06,36,10.20
2012,07,04,06,37,10.20
2012,07,04,06,38,10.20
2012,07,04,06,39,10.20
2012,07,04,06,40,10.20
2012,07,04,06,41,10.30
2012,07,04,06,42,10.30
2012,07,04,06,43,10.30
2012,07,04,06,44,10.30
2012,07,04,06,45,10.30
2012,07,04,06,46,10.30
2012,07,04,06,47,10.30
2012,07,04,06,48,10.30
2012,07,04,06,49,10.30
2012,07,04,06,50,10.30
2012,07,04,06,51,10.40
2012,07,04,06,52,10.40
2012,07,04,06,53,10.40
2012,07,04,06,54,10.40
2012,07,04,06,55,10.40
2012,07,04,06,56,10.40
2012,07,04,06,57,10.50
2012,07,04,06,58,10.50
2012,07,04,06,59,10.50
2012,07,04,07,00,10.50
2012,07,04,07,01,10.50
2012,07,04,07,02,10.50
2012,07,04,07,03,10.50
2012,07,04,07,04,10.50
2012,07,04,07,05,10.60
2012,07,04,07,06,10.60
2012,07,04,07,07,10.60
2012,07,04,07,08,10.60
2012,07,04,07,09,10.60
2012,07,04,07,10,10.60
2012,07,04,07,11,10.60
2012,07,04,07,12,10.60
2012,07,04,07,13,10.60
2012,07,04,07,14,10.60
2012,07,04,07,15,10.60
2012,07,04,07,16,10.60
2012,07,04,07,17,10.60
2012,07,04,07,18,10.60
2012,07,04,07,19,10.70
2012,07,04,07,20,10.70
2012,07,04,07,21,10.70
2012,07,04,07,22,10.70
2012,07,04,07,23,10.70
2012,07,04,07,24,10.70
2012,07,04,07,25,10.70
2012,07,04,07,26,10.70
2012,07,04,07,27,10.80
2012,07,04,07,28,10.80
2012,07,04,07,29,10.80
2012,07,04,07,30,10.80
2012,07,04,07,31,10.80
2012,07,04,07,32,10.80
2012,07,04,07,33,10.80
2012,07,04,07,34,10.80
2012,07,04,07,35,10.80
2012,07,04,07,36,10.80
2012,07,04,07,37,10.80
2012,07,04,07,38,10.90
2012,07,04,07,39,10.90
2012,07,04,07,40,11.00
2012,07,04,07,41,11.00
2012,07,04,07,42,11.10
2012,07,04,07,43,11.10
2012,07,04,07,44,11.10
2012,07,04,07,45,11.20
2012,07,04,07,46,11.20
2012,07,04,07,47,11.20
2012,07,04,07,48,11.20
2012,07,04,07,49,11.30
2012,07,04,07,50,11.30
2012,07,04,07,51,11.30
2012,07,04,07,52,11.30
2012,07,04,07,53,11.30
2012,07,04,07,54,11.30
2012,07,04,07,55,11.30
2012,07,04,07,56,11.30
2012,07,04,07,57,11.30
2012,07,04,07,58,11.30
2012,07,04,07,59,11.30
2012,07,04,08,00,11.30
2012,07,04,08,01,11.30
2012,07,04,08,02,11.40
2012,07,04,08,03,11.40
2012,07,04,08,04,11.40
2012,07,04,08,05,11.40
2012,07,04,08,06,11.40
2012,07,04,08,07,11.50
2012,07,04,08,08,11.50
2012,07,04,08,09,11.50
2012,07,04,08,10,11.60
2012,07,04,08,11,11.60
2012,07,04,08,12,11.60
2012,07,04,08,13,11.60
2012,07,04,08,14,11.60
2012,07,04,08,15,11.70
2012,07,04,08,16,11.70
2012,07,04,08,17,11.60
2012,07,04,08,18,11.60
2012,07,04,08,19,11.60
2012,07,04,08,20,11.60
2012,07,04,08,21,11.60
2012,07,04,08,22,11.60
2012,07,04,08,23,11.60
2012,07,04,08,24,11.60
2012,07,04,08,25,11.70
2012,07,04,08,26,11.70
2012,07,04,08,27,11.70
2012,07,04,08,28,11.70
2012,07,04,08,29,11.70
2012,07,04,08,30,11.70
2012,07,04,08,31,11.70
2012,07,04,08,32,11.70
2012,07,04,08,33,11.70
2012,07,04,08,34,11.70
2012,07,04,08,35,11.70
2012,07,04,08,36,11.70
2012,07,04,08,37,11.70
2012,07,04,08,38,11.70
2012,07,04,08,39,11.70
2012,07,04,08,40,11.70
2012,07,04,08,41,11.70
2012,07,04,08,42,11.70
2012,07,04,08,43,11.70
2012,07,04,08,44,11.80
2012,07,04,08,45,11.80
2012,07,04,08,46,11.80
2012,07,04,08,47,11.80
2012,07,04,08,48,11.80
2012,07,04,08,49,11.90
2012,07,04,08,50,11.90
2012,07,04,08,51,12.00
2012,07,04,08,52,12.00
2012,07,04,08,53,12.00
2012,07,04,08,54,12.10
2012,07,04,08,55,12.10
2012,07,04,08,56,12.20
2012,07,04,08,57,12.20
2012,07,04,08,58,12.20
2012,07,04,08,59,12.20
2012,07,04,09,00,12.30
2012,07,04,09,01,12.30
2012,07,04,09,02,12.30
2012,07,04,09,03,12.40
2012,07,04,09,04,12.40
2012,07,04,09,05,12.50
2012,07,04,09,06,12.50
2012,07,04,09,07,12.50
2012,07,04,09,08,12.50
2012,07,04,09,09,12.50
2012,07,04,09,10,12.40
2012,07,04,09,11,12.40
2012,07,04,09,12,12.40
2012,07,04,09,13,12.40
2012,07,04,09,14,12.50
2012,07,04,09,15,12.50
2012,07,04,09,16,12.50
2012,07,04,09,17,12.60
2012,07,04,09,18,12.60
2012,07,04,09,19,12.60
2012,07,04,09,20,12.60
2012,07,04,09,21,12.60
2012,07,04,09,22,12.60
2012,07,04,09,23,12.60
2012,07,04,09,24,12.60
2012,07,04,09,25,12.60
2012,07,04,09,26,12.60
2012,07,04,09,27,12.70
2012,07,04,09,28,12.70
2012,07,04,09,29,12.70
2012,07,04,09,30,12.70
2012,07,04,09,31,12.70
2012,07,04,09,32,12.70
2012,07,04,09,33,12.70
2012,07,04,09,34,12.80
2012,07,04,09,35,12.80
2012,07,04,09,36,12.80
2012,07,04,09,37,12.80
2012,07,04,09,38,12.80
2012,07,04,09,39,12.80
2012,07,04,09,40,12.80
2012,07,04,09,41,12.80
2012,07,04,09,42,12.80
2012,07,04,09,43,12.80
2012,07,04,09,44,12.90
2012,07,04,09,45,12.90
2012,07,04,09,46,12.90
2012,07,04,09,47,12.80
2012,07,04,09,48,12.80
2012,07,04,09,49,12.80
2012,07,04,09,50,12.80
2012,07,04,09,51,12.80
2012,07,04,09,52,12.80
2012,07,04,09,53,12.80
2012,07,04,09,54,12.80
2012,07,04,09,55,12.80
2012,07,04,09,56,12.80
2012,07,04,09,57,12.80
2012,07,04,09,58,12.90
2012,07,04,09,59,12.90
2012,07,04,10,00,12.90
2012,07,04,10,01,12.90
2012,07,04,10,02,12.90
2012,07,04,10,03,12.90
2012,07,04,10,04,12.90
2012,07,04,10,05,12.90
2012,07,04,10,06,12.90
2012,07,04,10,07,12.90
2012,07,04,10,08,12.90
2012,07,04,10,09,13.00
2012,07,04,10,10,13.00
2012,07,04,10,11,13.00
2012,07,04,10,12,13.00
2012,07,04,10,13,13.10
2012,07,04,10,14,13.10
2012,07,04,10,15,13.10
2012,07,04,10,16,13.10
2012,07,04,10,17,13.10
2012,07,04,10,18,13.10
2012,07,04,10,19,13.10
2012,07,04,10,20,13.10
2012,07,04,10,21,13.10
2012,07,04,10,22,13.10
2012,07,04,10,23,13.20
2012,07,04,10,24,13.20
2012,07,04,10,25,13.30
2012,07,04,10,26,13.30
2012,07,04,10,27,13.40
2012,07,04,10,28,13.40
2012,07,04,10,29,13.40
2012,07,04,10,30,13.40
2012,07,04,10,31,13.40
2012,07,04,10,32,13.40
2012,07,04,10,33,13.40
2012,07,04,10,34,13.40
2012,07,04,10,35,13.40
2012,07,04,10,36,13.40
2012,07,04,10,37,13.40
2012,07,04,10,38,13.40
2012,07,04,10,39,13.40
2012,07,04,10,40,13.40
2012,07,04,10,41,13.50
2012,07,04,10,42,13.50
2012,07,04,10,43,13.60
2012,07,04,10,44,13.60
2012,07,04,10,45,13.60
2012,07,04,10,46,13.70
2012,07,04,10,47,13.70
2012,07,04,10,48,13.70
2012,07,04,10,49,13.70
2012,07,04,10,50,13.70
2012,07,04,10,51,13.70
2012,07,04,10,52,13.70
2012,07,04,10,53,13.70
2012,07,04,10,54,13.80
2012,07,04,10,55,13.80
2012,07,04,10,56,13.90
2012,07,04,10,57,13.90
2012,07,04,10,58,13.90
2012,07,04,10,59,13.90
2012,07,04,11,00,13.90
2012,07,04,11,01,13.90
2012,07,04,11,02,14.00
2012,07,04,11,03,14.00
2012,07,04,11,04,14.00
2012,07,04,11,05,14.10
2012,07,04,11,06,14.10
2012,07,04,11,07,14.10
2012,07,04,11,08,14.20
2012,07,04,11,09,14.20
2012,07,04,11,10,14.20
2012,07,04,11,11,14.20
2012,07,04,11,12,14.20
2012,07,04,11,13,14.20
2012,07,04,11,14,14.10
2012,07,04,11,15,14.10
2012,07,04,11,16,14.10
2012,07,04,11,17,14.20
2012,07,04,11,18,14.20
2012,07,04,11,19,14.30
2012,07,04,11,20,14.30
2012,07,04,11,21,14.30
2012,07,04,11,22,14.40
2012,07,04,11,23,14.40
2012,07,04,11,24,14.40
2012,07,04,11,25,14.40
2012,07,04,11,26,14.30
2012,07,04,11,27,14.30
2012,07,04,11,28,14.20
2012,07,04,11,29,14.30
2012,07,04,11,30,14.30
2012,07,04,11,31,14.30
2012,07,04,11,32,14.40
2012,07,04,11,33,14.50
2012,07,04,11,34,14.60
2012,07,04,11,35,14.60
2012,07,04,11,36,14.70
2012,07,04,11,37,14.70
2012,07,04,11,38,14.70
2012,07,04,11,39,14.70
2012,07,04,11,40,14.60
2012,07,04,11,41,14.60
2012,07,04,11,42,14.60
2012,07,04,11,43,14.60
2012,07,04,11,44,14.60
2012,07,04,11,45,14.60
2012,07,04,11,46,14.60
2012,07,04,11,47,14.60
2012,07,04,11,48,14.60
2012,07,04,11,49,14.70
2012,07,04,11,50,14.70
2012,07,04,11,51,14.70
2012,07,04,11,52,14.70
2012,07,04,11,53,14.80
2012,07,04,11,54,14.80
2012,07,04,11,55,14.90
2012,07,04,11,56,14.90
2012,07,04,11,57,14.90
2012,07,04,11,58,14.90
2012,07,04,11,59,14.90
2012,07,04,12,00,14.80
2012,07,04,12,01,14.80
2012,07,04,12,02,14.80
2012,07,04,12,03,14.80
2012,07,04,12,04,14.80
2012,07,04,12,05,14.70
2012,07,04,12,06,14.70
2012,07,04,12,07,14.70
2012,07,04,12,08,14.70
2012,07,04,12,09,14.70
2012,07,04,12,10,14.60
2012,07,04,12,11,14.60
2012,07,04,12,12,14.60
2012,07,04,12,13,14.60
2012,07,04,12,14,14.70
2012,07,04,12,15,14.70
2012,07,04,12,16,14.80
2012,07,04,12,17,14.80
2012,07,04,12,18,14.90
2012,07,04,12,19,15.00
2012,07,04,12,20,15.00
2012,07,04,12,21,15.00
2012,07,04,12,22,15.10
2012,07,04,12,23,15.10
2012,07,04,12,24,15.20
2012,07,04,12,25,15.30
2012,07,04,12,26,15.30
2012,07,04,12,27,15.30
2012,07,04,12,28,15.30
2012,07,04,12,29,15.30
2012,07,04,12,30,15.30
2012,07,04,12,31,15.30
2012,07,04,12,32,15.30
2012,07,04,12,33,15.30
2012,07,04,12,34,15.30
2012,07,04,12,35,15.30
2012,07,04,12,36,15.30
2012,07,04,12,37,15.40
2012,07,04,12,38,15.40
2012,07,04,12,39,15.40
2012,07,04,12,40,15.40
2012,07,04,12,41,15.40
2012,07,04,12,42,15.40
2012,07,04,12,43,15.40
2012,07,04,12,44,15.40
2012,07,04,12,45,15.40
2012,07,04,12,46,15.40
2012,07,04,12,47,15.40
2012,07,04,12,48,15.30
2012,07,04,12,49,15.30
2012,07,04,12,50,15.30
2012,07,04,12,51,15.30
2012,07,04,12,52,15.30
2012,07,04,12,53,15.30
2012,07,04,12,54,15.40
2012,07,04,12,55,15.40
2012,07,04,12,56,15.40
2012,07,04,12,57,15.50
2012,07,04,12,58,15.50
2012,07,04,12,59,15.60
2012,07,04,13,00,15.60
2012,07,04,13,01,15.60
2012,07,04,13,02,15.70
2012,07,04,13,03,15.70
2012,07,04,13,04,15.70
2012,07,04,13,05,15.70
2012,07,04,13,06,15.70
2012,07,04,13,07,15.80
2012,07,04,13,08,15.80
2012,07,04,13,09,15.80
2012,07,04,13,10,15.80
2012,07,04,13,11,15.80
2012,07,04,13,12,15.90
2012,07,04,13,13,15.80
2012,07,04,13,14,15.80
2012,07,04,13,15,15.80
2012,07,04,13,16,15.70
2012,07,04,13,17,15.70
2012,07,04,13,18,15.80
2012,07,04,13,19,15.80
2012,07,04,13,20,15.80
2012,07,04,13,21,15.80
2012,07,04,13,22,15.90
2012,07,04,13,23,15.90
2012,07,04,13,24,16.10
2012,07,04,13,25,16.20
2012,07,04,13,26,16.30
2012,07,04,13,27,16.40
2012,07,04,13,28,16.40
2012,07,04,13,29,16.50
2012,07,04,13,30,16.50
2012,07,04,13,31,16.50
2012,07,04,13,32,16.50
2012,07,04,13,33,16.50
2012,07,04,13,34,16.50
2012,07,04,13,35,16.50
2012,07,04,13,36,16.50
2012,07,04,13,37,16.60
2012,07,04,13,38,16.60
2012,07,04,13,39,16.60
2012,07,04,13,40,16.60
2012,07,04,13,41,16.70
2012,07,04,13,42,16.80
2012,07,04,13,43,16.70
2012,07,04,13,44,16.70
2012,07,04,13,45,16.70
2012,07,04,13,46,16.70
2012,07,04,13,47,16.80
2012,07,04,13,48,16.80
2012,07,04,13,49,16.80
2012,07,04,13,50,16.80
2012,07,04,13,51,16.80
2012,07,04,13,52,16.80
2012,07,04,13,53,16.90
2012,07,04,13,54,16.90
2012,07,04,13,55,17.00
2012,07,04,13,56,17.10
2012,07,04,13,57,17.10
2012,07,04,13,58,17.00
2012,07,04,13,59,17.00
2012,07,04,14,00,17.00
2012,07,04,14,01,17.00
2012,07,04,14,02,17.10
2012,07,04,14,03,17.10
2012,07,04,14,04,17.20
2012,07,04,14,05,17.20
2012,07,04,14,06,17.20
2012,07,04,14,07,17.30
2012,07,04,14,08,17.40
2012,07,04,14,09,17.50
2012,07,04,14,10,17.60
2012,07,04,14,11,17.60
2012,07,04,14,12,17.60
2012,07,04,14,13,17.60
2012,07,04,14,14,17.60
2012,07,04,14,15,17.70
2012,07,04,14,16,17.70
2012,07,04,14,17,17.80
2012,07,04,14,18,17.90
2012,07,04,14,19,17.90
2012,07,04,14,20,18.00
2012,07,04,14,21,18.00
2012,07,04,14,22,18.10
2012,07,04,14,23,18.20
2012,07,04,14,24,18.30
2012,07,04,14,25,18.40
2012,07,04,14,26,18.60
2012,07,04,14,27,18.60
2012,07,04,14,28,18.50
2012,07,04,14,29,18.40
2012,07,04,14,30,18.30
2012,07,04,14,31,18.10
2012,07,04,14,32,18.10
2012,07,04,14,33,18.00
2012,07,04,14,34,18.10
2012,07,04,14,35,18.10
2012,07,04,14,36,18.20
2012,07,04,14,37,18.20
2012,07,04,14,38,18.30
2012,07,04,14,39,18.30
2012,07,04,14,40,18.30
2012,07,04,14,41,18.30
2012,07,04,14,42,18.30
2012,07,04,14,43,18.30
2012,07,04,14,44,18.20
2012,07,04,14,45,18.20
2012,07,04,14,46,18.10
2012,07,04,14,47,18.10
2012,07,04,14,48,18.20
2012,07,04,14,49,18.20
2012,07,04,14,50,18.30
2012,07,04,14,51,18.30
2012,07,04,14,52,18.40
2012,07,04,14,53,18.40
2012,07,04,14,54,18.40
2012,07,04,14,55,18.40
2012,07,04,14,56,18.40
2012,07,04,14,57,18.50
2012,07,04,14,58,18.50
2012,07,04,14,59,18.50
2012,07,04,15,00,18.50
2012,07,04,15,01,18.50
2012,07,04,15,02,18.50
2012,07,04,15,03,18.60
2012,07,04,15,04,18.70
2012,07,04,15,05,18.70
2012,07,04,15,06,18.70
2012,07,04,15,07,18.70
2012,07,04,15,08,18.60
2012,07,04,15,09,18.60
2012,07,04,15,10,18.50
2012,07,04,15,11,18.40
2012,07,04,15,12,18.40
2012,07,04,15,13,18.50
2012,07,04,15,14,18.50
2012,07,04,15,15,18.50
2012,07,04,15,16,18.50
2012,07,04,15,17,18.60
2012,07,04,15,18,18.60
2012,07,04,15,19,18.50
2012,07,04,15,20,18.50
2012,07,04,15,21,18.50
2012,07,04,15,22,18.50
2012,07,04,15,23,18.40
2012,07,04,15,24,18.40
2012,07,04,15,25,18.40
2012,07,04,15,26,18.40
2012,07,04,15,27,18.40
2012,07,04,15,28,18.50
2012,07,04,15,29,18.50
2012,07,04,15,30,18.50
2012,07,04,15,31,18.40
2012,07,04,15,32,18.50
2012,07,04,15,33,18.50
2012,07,04,15,34,18.60
2012,07,04,15,35,18.60
2012,07,04,15,36,18.70
2012,07,04,15,37,18.70
2012,07,04,15,38,18.70
2012,07,04,15,39,18.70
2012,07,04,15,40,18.80
2012,07,04,15,41,18.80
2012,07,04,15,42,18.80
2012,07,04,15,43,18.80
2012,07,04,15,44,18.90
2012,07,04,15,45,18.90
2012,07,04,15,46,19.00
2012,07,04,15,47,19.00
2012,07,04,15,48,19.00
2012,07,04,15,49,19.10
2012,07,04,15,50,19.20
2012,07,04,15,51,19.30
2012,07,04,15,52,19.40
2012,07,04,15,53,19.40
2012,07,04,15,54,19.40
2012,07,04,15,55,19.40
2012,07,04,15,56,19.40
2012,07,04,15,57,19.40
2012,07,04,15,58,19.40
2012,07,04,15,59,19.40
2012,07,04,16,00,19.40
2012,07,04,16,01,19.30
2012,07,04,16,02,19.20
2012,07,04,16,03,19.20
2012,07,04,16,04,19.10
2012,07,04,16,05,19.10
2012,07,04,16,06,19.10
2012,07,04,16,07,19.20
2012,07,04,16,08,19.20
2012,07,04,16,09,19.20
2012,07,04,16,10,19.20
2012,07,04,16,11,19.20
2012,07,04,16,12,19.10
2012,07,04,16,13,19.10
2012,07,04,16,14,19.10
2012,07,04,16,15,19.10
2012,07,04,16,16,19.10
2012,07,04,16,17,19.00
2012,07,04,16,18,19.00
2012,07,04,16,19,18.90
2012,07,04,16,20,18.90
2012,07,04,16,21,18.90
2012,07,04,16,22,18.90
2012,07,04,16,23,18.90
2012,07,04,16,24,18.90
2012,07,04,16,25,18.90
2012,07,04,16,26,18.90
2012,07,04,16,27,18.90
2012,07,04,16,28,19.00
2012,07,04,16,29,19.10
2012,07,04,16,30,19.20
2012,07,04,16,31,19.20
2012,07,04,16,32,19.30
2012,07,04,16,33,19.30
2012,07,04,16,34,19.20
2012,07,04,16,35,19.20
2012,07,04,16,36,19.10
2012,07,04,16,37,19.10
2012,07,04,16,38,19.00
2012,07,04,16,39,19.00
2012,07,04,16,40,19.00
2012,07,04,16,41,19.00
2012,07,04,16,42,19.10
2012,07,04,16,43,19.10
2012,07,04,16,44,19.10
2012,07,04,16,45,19.20
2012,07,04,16,46,19.20
2012,07,04,16,47,19.30
2012,07,04,16,48,19.20
2012,07,04,16,49,19.20
2012,07,04,16,50,19.20
2012,07,04,16,51,19.20
2012,07,04,16,52,19.10
2012,07,04,16,53,19.00
2012,07,04,16,54,19.00
2012,07,04,16,55,18.90
2012,07,04,16,56,18.80
2012,07,04,16,57,18.80
2012,07,04,16,58,18.80
2012,07,04,16,59,18.80
2012,07,04,17,00,18.80
2012,07,04,17,01,18.80
2012,07,04,17,02,18.80
2012,07,04,17,03,18.80
2012,07,04,17,04,18.80
2012,07,04,17,05,18.90
2012,07,04,17,06,18.90
2012,07,04,17,07,18.90
2012,07,04,17,08,18.90
2012,07,04,17,09,19.00
2012,07,04,17,10,19.00
2012,07,04,17,11,19.10
2012,07,04,17,12,19.20
2012,07,04,17,13,19.20
2012,07,04,17,14,19.30
2012,07,04,17,15,19.30
2012,07,04,17,16,19.30
2012,07,04,17,17,19.30
2012,07,04,17,18,19.30
2012,07,04,17,19,19.30
2012,07,04,17,20,19.30
2012,07,04,17,21,19.30
2012,07,04,17,22,19.30
2012,07,04,17,23,19.30
2012,07,04,17,24,19.40
2012,07,04,17,25,19.40
2012,07,04,17,26,19.40
2012,07,04,17,27,19.40